Satellite-Ground Cal/Val Site Overpasses Predictions

Prediction of Satellite NPP Overpassing Cal/Val Site: Antarctic Dome C

Ground Cal/Val Site Location: Latitude: -75.10, Longitude: 123.35; Satellite-Ground Site NADIR distance within 100 km.

Table of predicted overpasses for the next 14.0 days since TLE Epoch: 1/7/2023
Interval Starting Time Ending Time Minimum Distance Time Minimum Distance (km)
1 01/08/2023 15:09:02 01/08/2023 15:09:06 01/08/2023 15:09:04 98.64
2 01/09/2023 14:50:01 01/09/2023 14:50:30 01/09/2023 14:50:15 12.73
3 01/11/2023 07:32:52 01/11/2023 07:33:21 01/11/2023 07:33:06 4.17
4 01/14/2023 14:56:21 01/14/2023 14:56:50 01/14/2023 14:56:36 24.06
5 01/15/2023 14:37:40 01/15/2023 14:37:56 01/15/2023 14:37:48 82.94
6 01/16/2023 07:39:13 01/16/2023 07:39:40 01/16/2023 07:39:27 33.15
7 01/17/2023 07:20:29 01/17/2023 07:20:47 01/17/2023 07:20:38 76.97
8 01/19/2023 15:02:45 01/19/2023 15:03:08 01/19/2023 15:02:57 61.15
